Regional Weather Roundup
Issued by NWS Albany, NY

Home | Current Version | Previous Version | Text Only | Print | Product List | Glossary On
Versions: 1 2 3 4 5 6 7 8 9 10 11 12 13 14 15 16 17 18 19 20 21 22 23 24 25 26 27 28 29 30 31 32 33 34 35 36 37 38 39 40 41 42 43 44 45 46 47 48 49 50
000
ASUS41 KALY 260410
RWRALY

NEW YORK STATE HOURLY WEATHER ROUNDUP
NATIONAL WEATHER SERVICE ALBANY NY
1200 AM EDT TUE MAY 26 2015

NOTE: "FAIR" INDICATES FEW OR NO CLOUDS BELOW 12,000 FEET WITH NO
SIGNIFICANT WEATHER AND/OR NO OBSTRUCTIONS TO VISIBILITY.

NYZ032-033-038>043-046>054-057>066-NYZ062>081-260500-
EAST


CITY           SKY/WX    TMP DP  RH WIND       PRES   REMARKS
ALBANY         CLOUDY    77  54  44 S10       30.06S
GLENS FALLS    CLOUDY    74  58  57 S8        30.04R
POUGHKEEPSIE   MOCLDY    77  56  48 VRB5G17   30.14S
MONTGOMERY     MOCLDY    71  59  65 SW5       30.16R
WHITE PLAINS   PTCLDY    67  57  70 SE3       30.19S
ISLIP          MOCLDY    64  54  69 SW17G25   30.22R
NEW YORK CITY  PTCLDY    72  57  59 SW10      30.20R
CENTRAL PARK   CLEAR     72  57  59 MISG      30.23R
$$

NYZ005>009-017-018-044>046-055-056-260500-
CENTRAL


CITY           SKY/WX    TMP DP  RH WIND       PRES   REMARKS
FULTON         RAIN      70  64  81 NW8       30.02R
SYRACUSE       CLOUDY    79  57  46 S15G25    30.00S
ROME           CLOUDY    73  59  61 CALM      30.04S
ELMIRA         CLOUDY    75  58  55 SW6       30.08R
BINGHAMTON     PTCLDY    71  56  58 SW12G20   30.12S
MONTICELLO     PTCLDY    68  57  68 SW8       30.20S
$$

NYZ026>034-041>043-260500-
NORTH


CITY           SKY/WX    TMP DP  RH WIND       PRES   REMARKS
WATERTOWN      CLOUDY    68  63  84 S7        29.97S
FORT DRUM      NOT AVBL
MASSENA        CLOUDY    64  62  93 SW5       29.95S
SARANAC LAKE   CLOUDY    62  61  96 SW3       30.04S
PLATTSBURGH    CLOUDY    60  59  96 CALM      29.99F FOG
$$

NYZ001>004-010>016-019>021-260500-
WEST


CITY           SKY/WX    TMP DP  RH WIND       PRES   REMARKS
NIAGARA FALLS  CLEAR     65  57  75 SW12      30.01R
BUFFALO        PTCLDY    65  62  90 SW8       30.02S
DUNKIRK        CLEAR     71  62  73 S14G25    30.04R
JAMESTOWN      CLOUDY    72  57  60 SW9       30.11S
WELLSVILLE     MOCLDY    72  57  59 SW10G21   30.14R
ROCHESTER      MOCLDY    70  66  87 SW7       30.02F
PENN YAN       CLOUDY    74  57  55 S9        30.05R
$$

             KEY
       WCI = WIND CHILL INDEX
       VSB = VISIBILITY
       HX  = HEAT INDEX
$$



USA.gov is the U.S. government's official web portal to all federal, state and local government web resources and services.